Погода в Сан-Жозе-дус-Кампус

Бразилия     23°10′45″S   45°53′13″W
темп.,
°C
ветер,
м/с
пор.,
м/с
влажн.,
%
обл.,
%
осадки,
мм/ч
давл.,
гПа
погр.,
м
20 июня, вс
вс2000:00+16всв118756 0.0 101739
03:00+16всв00865 0.0 101724
06:00+15зсз128399 0.0 101763
09:00+18зсз496523 0.0 1018501
12:00+24з7125037 0.0 10161605
15:00+22з6115857 0.3 10151604
18:00+16ю5887100 0.3 1018413
21:00+15ююз4780100 0.3 1021747
21 июня, пн
пн2100:00+14юз118481 0.0 1021219
03:00+14ссв0183100 0.1 1021167
06:00+14св1181100 0.1 102153
09:00+16вюв11725 0.1 1023431
12:00+21в01495 0.0 10211076
15:00+22в1143100 0.0 1017906
18:00+17ю1264100 0.0 101940
21:00+16ююз1284100 0.0 1021154
22 июня, вт
вт2200:00+14ююз1191100 0.1 102139
03:00+15юз2288100 0.1 1020156
06:00+14всв119248 0.3 102154
09:00+16всв0180100 0.4 1022288
12:00+22ююз125929 0.0 1020808
15:00+23ю336123 0.3 1018935
18:00+16ю378481 0.2 1021331
21:00+16ююв258593 0.2 1023517
23 июня, ср
ср2300:00+16юв2378100 0.0 1023472
03:00+16вюв118098 0.1 1023142
06:00+15юв128198 0.0 1023113
09:00+17вюв247153 0.0 1024563
12:00+21в345622 0.0 10221193
15:00+23в33480 0.0 10191338
18:00+16юв36725 0.0 1020200
21:00+14юв138823 0.0 1022134
24 июня, чт
чт2400:00+13всв13925 0.0 1021127
03:00+12всв25925 0.0 1019178
06:00+11всв24924 0.0 1019125
09:00+16св23730 0.0 1020307
12:00+23всв22495 0.0 1017560
15:00+26в224316 0.0 1014658
18:00+21св23625 0.0 101552
21:00+18св247353 0.0 101776